IRNSS-1E

Last updated on Tue Sep 16 2025 00:02:48 GMT+0000 (Coordinated Universal Time)

1 41241U 16003A 25258.54134529 -.00000303 00000+0 00000+0 0 9992 2 41241 32.6288 63.7295 0021505 177.7339 59.9694 1.00270152 35328
UTC large
Height (km)
Speed (km/s)
/
Latitude / Longitude
Inclination (degrees)
Orbital Period (minutes)
Azimuth
Elevation
Range (km)
Doppler Factor

Next 0 passes for location: London (51.5072 / 0.1276)

Sorry there are no passes over London.